Regional Weather Roundup
Issued by NWS Kansas City/Pleasant Hill, MO

Home | Current Version | Previous Version | Text Only | Print | Product List | Glossary On
Versions: 1 2 3 4 5 6 7 8 9 10 11 12 13 14 15 16 17 18 19 20 21 22 23 24 25 26 27 28 29 30 31 32 33 34 35 36 37 38 39 40 41 42 43 44 45 46 47 48 49 50
000
ASUS43 KEAX 050810
RWREAX

WEATHER ROUNDUP FOR EASTERN KANSAS AND NORTHWEST MISSOURI
NATIONAL WEATHER SERVICE KANSAS CITY/PLEASANT HILL MO
300 AM CDT SAT SEP 05 2015

KSZ040-057-103>105-MOZ028-029-037-043-050900-
...KANSAS CITY METROPOLITAN AREA...

CITY           SKY/WX    TMP DP  RH WIND       PRES   REMARKS
K.C. INTL      CLEAR     74  69  85 S8        29.99S
K.C. DOWNTOWN  CLEAR     79  69  71 S8        29.98S
LEES SUMMIT    CLEAR     76  68  76 S8        30.01S
OLATHE - IXD   CLEAR     74  69  85 SE7       30.01S
OLATHE - OJC   CLEAR     72  69  90 S6        30.00S
LAWRENCE       CLEAR     71  68  90 E6        29.98S

$$

MOZ001>008-011>017-020>025-030>033-038>040-044>046-053-054-050900-
...NORTHERN AND CENTRAL MISSOURI...

CITY           SKY/WX    TMP DP  RH WIND       PRES   REMARKS
ST. JOSEPH     CLEAR     72  68  87 S5        29.98R
MOSBY          SUNNY     70  68  94 CALM      30.00S
WARRENSBURG    CLEAR     72  68  88 SE5       30.00S
WHITEMAN AFB   CLEAR     73  69  85 S6        30.00F
CLINTON        CLEAR     75  70  83 CALM      30.02S
SEDALIA        CLEAR     73  68  84 S7        30.03S
WARSAW         NOT AVBL
CHILLICOTHE      N/A     72  69  90 CALM      30.01S
KIRKSVILLE     CLEAR     72  67  84 S5        30.03S

$$

MOZ041-047>049-056>058-063>065-088>090-097-050900-
...EASTERN AND SOUTHERN MISSOURI...

CITY           SKY/WX    TMP DP  RH WIND       PRES   REMARKS
ST. LOUIS INTL CLEAR     80  67  64 VRB3      30.04
SPIRIT OF STL  CLEAR     69  69 100 CALM      30.03S
COLUMBIA       CLEAR     72  70  93 S6        30.04S
JEFFERSON CITY CLEAR     72  69  90 CALM      30.02F
ROLLA          CLEAR     72  67  84 S7        30.04F
OSAGE BEACH    CLEAR     73  66  78 CALM      30.04S
SPRINGFIELD    CLEAR     75  66  73 S9        30.03F
BRANSON        MOCLDY    72  66  83 CALM      30.06S
JOPLIN         CLEAR     77  68  73 SE8       30.00F
WEST PLAINS    CLEAR     69  66  90 CALM      30.08S

$$

IAZ060-094-KSZ022-034>040-054-083-096-NEZ052-066-093-050900-
...KANSAS...SOUTHEAST NEBRASKA AND IOWA...

CITY           SKY/WX    TMP DP  RH WIND       PRES   REMARKS
TOPEKA         CLEAR     76  69  79 SE7       29.97S
MANHATTAN      CLEAR     78  69  73 S9        29.94R
EMPORIA        CLEAR     73  69  87 S12       29.97S
CHANUTE        CLEAR     72  70  93 E5        29.99R
WICHITA        CLEAR     75  69  81 S9        29.96S
OMAHA          MOCLDY    77  69  76 S13       29.92S
LINCOLN        PTCLDY    77  69  76 S13       29.91S
FALLS CITY     CLEAR     76  69  79 S9        29.95R
LAMONI         CLEAR     74  68  81 S5        30.00S
DES MOINES     MOCLDY    76  68  76 S8        29.98S

$$



USA.gov is the U.S. government's official web portal to all federal, state and local government web resources and services.